YAOGAN-31 C

导读 | 豆包AI

YAOGAN-31 C(遥感三十一号C组)是中国研发的遥感卫星,于2018年4月10日发射升空,成功进入预定轨道。该卫星主要用于开展空间电磁环境探测任务,同时承担相关空间技术试验验证工作,是我国遥感卫星体系中开展技术验证与环境探测的重要节点,将为我国空间科学发展和航天技术积累提供关键数据支撑。

基本信息
目录编号:
43277
目录名称:
YAOGAN-31 C
国际标识:
2018-034C
轨道中心:
EARTH
卫星名称:
YAOGAN-31 C
卫星全名:
--
卫星状态:
在轨 (已飞行2895 天)
发射日期:
2018-04-10 UTC
国别 :
中国 (CN)
星等 :
--
轨道信息
数据来源 国际轨道数据 AOE轨道数据
星历时间 2026-03-13T23:12:04+0800
11小时前
查看轨道信息
2026-03-13T14:00:00+0800
20小时前
查看轨道信息
半长轴 7467.244km 7467.251km
偏心率 0.0267037 0.0266817
轨道倾角 63.399° 63.398°
近地点辐角 6.834° 6.833°
升交点赤经 336.491° 337.476°
平近点角 353.621° 296.675°
近地点 889.703km 889.875km
远地点 1288.511km 1288.353km
周期 107.029分钟 107.029分钟
每日圈数 13.454338 13.454318
详细信息
使用方式:
暂无
2D轨道图
3D轨道图
轨道高度分析图
轨道倾角分析图
轨道综合分析图
查看轨道综合分析图